Skip Page Navigation
NASA JPL Caltech
NASA Logo - Jet Propulsion Laboratory + View the NASA Portal
+ Near-Earth Object (NEO) Program
Search JPL
JPL Home Earth Solar System Stars & Galaxies Technology
JPL Solar System Dynamics
BODIES ORBITS EPHEMERIDES TOOLS PHYSICAL DATA DISCOVERY FAQ SITE MAP
JPL Small-Body Database Browser
Search: [ help ]  
9498 Westerbork (1197 T-2)
Classification: Main-belt Asteroid          SPK-ID: 2009498
Ephemeris | Orbit Diagram | Orbital Elements | Physical Parameters | Discovery Circumstances ]

[ show orbit diagram ]
Orbital Elements at Epoch 2456400.5 (2013-Apr-18.0) TDB
Reference: MPO233573 (heliocentric ecliptic J2000)
 Element Value Uncertainty (1-sigma)   Units 
e 0.2081283 n/a  
a 2.3556649 n/a AU
q 1.8653844 n/a AU
i 1.75895 n/a deg
node 214.10727 n/a deg
peri 62.86393 n/a deg
M 40.18981 n/a deg
tp 2456253.0712661
(2012-Nov-21.57126610)
n/a JED
period 1320.5920654
3.62
n/a
n/a
d
yr
n 0.27260500 n/a deg/d
Q 2.8459454 n/a AU
  Orbit Determination Parameters
   # obs. used (total)      486  
   first obs. used      1973-??-??  
   last obs. used      2012-06-12  
   # oppositions      13  
   planetary ephem.      DE403  
   condition code      0  
   fit RMS      0.57  
   data source      MPC:mpn  
   producer      MPCLINUX  

Additional Information
 T_jup = 3.524 

Ephemeris | Orbit Diagram | Orbital Elements | Physical Parameters | Discovery Circumstances ]

Physical Parameter Table
Parameter Symbol Value Units Sigma Reference Notes
absolute magnitude H 15.6 mag n/a PDS3 (MPC 32653)  

9498 Westerbork           Discovered 1973 Sept. 29 by C. J. van Houten and I. van Houten-Groeneveld on Palomar Schmidt plates taken by T. Gehrels.
The Westerbork Synthesis Radio Telescope in The Netherlands, dedicated in 1970, has excelled in studies of neutral hydrogen in nearby and distant galaxies, in continuum studies of radio galaxies, and in large-scale surveys. It is also an important part of the European VLBI network. The name was suggested by B. Burton.
NOTE: some special characters may not display properly (any characters within {} are an attempt to place the proper accent above a character)
Reference: 20000523/MPCPages.arcLast Updated: 2013-03-29

Alternate Designations
 1197 T-2 = 1994 GR7 
Ephemeris | Orbit Diagram | Orbital Elements | Physical Parameters | Discovery Circumstances ]
ABOUT SSD CREDITS/AWARDS PRIVACY/COPYRIGHT GLOSSARY LINKS
FirstGov 2013-May-22 14:39 UT
(server date/time)  
NASA Home Page
Site Manager:   Donald K. Yeomans
Webmaster  Alan B. Chamberlin